Vorticity
11 13 13 15 13 14 16 15 15 12 13 15 14 10 5 3 10 3 29 23 14 -0 5 3 9 7 5 1 4 6 4 4 6 5 5 3 2 3 5 6 7 7 7 8
10 8 9 8 9 10 9 9 8 11 9 16 12 7 3 8 5 20 24 14 1 6 6 6 6 4 5 1 7 -1 9 6 4 3 2 2 3 4 5 6 7 7 7 7
7 8 4 4 5 7 5 4 3 6 2 5 7 8 11 4 17 28 17 3 6 7 6 8 7 3 1 2 4 5 5 5 1 1 0 2 4 6 7 7 9 11 11 10
2 4 3 4 3 4 4 8 8 8 11 11 7 8 11 6 29 13 2 12 6 5 7 6 5 4 6 7 4 4 4 2 1 1 2 4 6 7 7 9 11 12 10 9
10 8 12 8 15 16 18 15 12 15 18 22 18 10 3 5 36 1 -3 4 4 5 5 7 5 4 4 3 4 4 3 2 2 2 4 6 7 8 10 9 8 8 9 9
9 15 13 7 8 7 7 7 11 10 12 15 33 19 15 16 33 -5 1 2 6 10 10 5 3 4 2 4 5 2 2 2 3 4 7 8 8 8 6 5 5 8 9 11
4 3 4 10 7 6 4 8 7 5 9 16 17 18 9 30 8 -6 -0 8 6 5 6 7 4 -1 4 5 5 1 2 4 5 7 8 8 6 5 6 5 9 11 9 9
4 7 4 3 3 4 8 7 6 5 3 12 15 22 29 -3 3 4 7 5 2 0 4 3 0 3 4 4 1 2 3 4 7 8 9 6 5 6 6 7 7 7 9 9
4 4 7 4 5 2 2 4 5 7 6 4 12 6 -2 -0 3 -0 1 4 1 1 2 2 4 5 4 2 0 3 5 7 8 8 5 4 4 4 5 6 7 7 6 13
8 6 2 8 7 9 10 8 4 4 6 8 7 4 6 5 3 0 1 1 3 8 4 6 5 3 1 0 3 5 7 7 7 5 4 6 6 6 7 8 7 7 10 16
14 9 2 7 6 5 4 6 7 7 4 5 4 6 6 6 5 6 8 10 10 7 4 1 1 1 1 5 7 7 9 6 5 5 5 6 5 7 9 9 8 8 5 7
4 8 14 17 11 9 9 9 7 8 9 11 7 6 3 3 3 4 4 4 4 3 3 3 4 5 6 7 9 7 6 6 5 5 5 5 4 6 11 12 8 4 6 9
0 3 5 8 16 9 16 15 13 13 13 5 4 7 8 9 10 10 7 6 6 7 8 8 9 8 7 6 5 5 5 6 6 7 7 6 5 9 15 10 5 6 10 14
6 6 9 9 3 5 10 13 12 12 25 9 13 15 10 7 6 7 7 7 7 6 5 5 4 4 5 5 6 7 7 7 7 7 7 8 8 13 10 7 7 11 18 30
5 5 5 6 4 1 1 5 4 12 10 4 3 3 11 14 12 10 9 9 7 5 5 3 4 5 7 8 7 7 8 9 9 8 8 9 12 15 8 8 15 14 20 18
6 13 9 10 4 7 4 -2 -1 6 5 2 13 13 15 21 17 12 13 14 14 13 12 12 12 13 12 11 13 12 13 14 13 12 10 11 14 11 9 14 14 14 17 10
3 2 12 10 21 17 2 4 9 9 4 4 0 4 5 8 4 17 17 8 10 11 11 14 17 13 9 13 15 12 12 12 10 10 10 10 8 7 11 14 10 17 13 6
19 16 12 10 9 15 28 22 10 2 10 12 10 7 3 4 7 3 3 7 10 7 4 4 4 7 9 8 7 11 12 12 11 6 2 15 10 3 2 -3 5 8 16 14
24 24 25 27 18 21 21 30 26 15 8 6 13 17 16 14 12 6 8 8 7 8 6 5 15 13 6 4 1 -0 3 3 6 16 11 11 13 16 17 22 16 3 11 12
15 18 16 16 17 16 21 24 27 29 23 15 15 18 19 19 16 18 21 17 12 7 4 4 3 2 3 3 12 14 8 8 1 5 6 14 10 11 13 22 15 9 15 12
12 15 14 15 18 22 18 19 18 21 16 17 14 13 13 17 26 13 12 12 10 12 13 15 13 10 13 8 3 7 12 13 10 10 11 9 10 9 9 10 18 8 10 12
15 17 14 10 9 20 20 21 23 14 8 11 14 15 16 14 12 13 16 19 17 14 13 12 9 10 11 12 9 14 14 6 8 11 9 8 8 8 11 10 13 15 16 14
18 19 17 13 10 6 5 14 14 12 19 16 8 12 11 15 15 17 14 11 13 9 10 14 17 21 23 21 18 17 14 12 9 11 9 11 12 15 13 12 13 12 18 21
6 15 16 23 26 11 2 1 14 11 11 16 14 8 9 14 12 10 10 9 9 14 13 13 12 12 14 15 16 13 14 10 10 12 14 19 16 14 14 16 18 13 13 18
7 12 4 12 8 9 21 1 2 13 6 1 7 12 11 12 16 10 13 13 15 18 19 18 19 19 17 14 16 15 14 16 13 10 9 9 13 16 15 15 13 17 6 20
10 15 10 -1 5 -4 -4 24 5 -3 3 5 5 5 2 3 6 5 3 2 5 5 4 9 10 12 15 14 13 12 13 15 12 13 13 12 13 13 13 13 14 17 19 1
2 -0 2 3 5 3 0 -14 17 19 8 7 9 5 -3 -0 -1 -0 5 15 13 9 6 11 12 8 10 12 14 17 20 21 20 18 17 14 15 14 15 14 22 19 7 22
Height
5720 5720 5719 5719 5718 5717 5716 5716 5715 5714 5713 5712 5712 5713 5713 5714 5714 5713 5712 5713 5715 5717 5718 5719 5719 5719 5718 5717 5715 5713 5711 5709 5706 5703 5699 5695 5691 5686 5680 5675 5669 5663 5658 5653
5720 5719 5718 5717 5717 5716 5715 5714 5713 5713 5712 5711 5711 5711 5711 5711 5711 5709 5709 5711 5713 5715 5716 5717 5717 5716 5715 5714 5713 5711 5709 5706 5704 5701 5698 5694 5689 5684 5679 5673 5668 5663 5658 5653
5720 5719 5718 5718 5716 5715 5713 5712 5711 5710 5709 5708 5707 5707 5708 5707 5705 5705 5707 5710 5712 5713 5714 5714 5715 5714 5713 5712 5710 5708 5705 5703 5700 5697 5694 5690 5685 5680 5675 5671 5666 5661 5657 5653
5720 5718 5718 5716 5714 5713 5710 5709 5707 5704 5703 5703 5703 5702 5702 5702 5701 5703 5706 5709 5710 5711 5711 5711 5711 5711 5709 5707 5706 5704 5702 5699 5696 5693 5689 5685 5680 5675 5671 5667 5663 5659 5655 5651
5718 5716 5715 5713 5711 5710 5707 5706 5703 5701 5699 5697 5696 5696 5696 5695 5696 5700 5703 5705 5706 5707 5707 5707 5707 5706 5704 5702 5701 5699 5697 5694 5691 5688 5684 5679 5675 5671 5667 5663 5659 5656 5652 5648
5717 5715 5713 5711 5708 5706 5705 5703 5701 5699 5696 5693 5691 5690 5692 5692 5693 5697 5699 5701 5702 5702 5702 5702 5702 5701 5699 5698 5695 5694 5691 5688 5685 5682 5678 5673 5669 5665 5661 5657 5654 5650 5647 5643
5715 5713 5711 5710 5707 5705 5704 5704 5699 5697 5695 5692 5690 5690 5690 5691 5693 5695 5697 5698 5698 5698 5698 5697 5697 5695 5694 5692 5689 5687 5685 5681 5678 5674 5670 5666 5662 5658 5654 5650 5647 5643 5640 5636
5710 5708 5708 5706 5705 5703 5702 5699 5697 5695 5694 5692 5690 5689 5689 5691 5692 5694 5694 5694 5694 5693 5693 5692 5691 5689 5687 5684 5683 5681 5677 5674 5670 5666 5662 5658 5655 5651 5647 5643 5639 5636 5632 5628
5704 5702 5699 5698 5699 5699 5699 5697 5695 5693 5692 5691 5690 5689 5689 5689 5690 5690 5690 5689 5688 5687 5686 5684 5683 5682 5680 5676 5675 5673 5669 5665 5662 5657 5653 5650 5646 5643 5639 5635 5631 5627 5623 5619
5695 5693 5687 5692 5692 5691 5691 5691 5690 5689 5688 5687 5686 5685 5684 5684 5683 5683 5682 5681 5680 5680 5678 5675 5673 5673 5671 5667 5664 5664 5661 5656 5652 5649 5645 5642 5638 5634 5630 5626 5622 5618 5614 5610
5684 5687 5678 5684 5684 5682 5681 5681 5681 5681 5680 5680 5679 5678 5676 5676 5675 5674 5674 5672 5672 5670 5669 5668 5663 5662 5661 5658 5656 5654 5650 5646 5642 5639 5636 5633 5629 5625 5621 5616 5613 5608 5603 5600
5673 5673 5675 5679 5674 5671 5671 5671 5669 5670 5671 5669 5668 5668 5667 5667 5665 5664 5664 5662 5661 5660 5659 5658 5655 5652 5649 5647 5646 5643 5640 5635 5631 5628 5625 5621 5618 5614 5610 5605 5601 5597 5592 5589
5663 5662 5661 5664 5664 5661 5661 5659 5658 5659 5659 5658 5656 5656 5655 5655 5653 5653 5652 5650 5648 5647 5646 5645 5643 5640 5638 5635 5632 5630 5627 5623 5620 5616 5613 5609 5606 5602 5599 5593 5588 5584 5578 5574
5657 5651 5654 5647 5649 5648 5646 5645 5646 5647 5646 5643 5642 5641 5642 5642 5640 5639 5639 5637 5636 5634 5632 5630 5628 5626 5624 5622 5620 5617 5615 5611 5608 5604 5601 5597 5593 5588 5585 5581 5576 5570 5563 5559
5642 5639 5637 5637 5634 5632 5631 5633 5633 5633 5631 5631 5629 5629 5627 5626 5625 5623 5623 5621 5620 5619 5617 5615 5613 5612 5610 5607 5605 5603 5600 5597 5594 5590 5586 5583 5579 5575 5571 5567 5562 5557 5551 5547
5620 5621 5622 5622 5619 5615 5615 5616 5617 5619 5616 5616 5614 5613 5611 5609 5608 5607 5607 5606 5605 5603 5601 5599 5597 5596 5594 5591 5589 5587 5584 5581 5578 5575 5571 5568 5564 5561 5557 5553 5548 5544 5539 5535
5602 5598 5597 5599 5601 5601 5598 5595 5596 5598 5601 5599 5598 5597 5596 5595 5593 5592 5591 5590 5589 5587 5586 5584 5582 5580 5577 5575 5572 5570 5568 5566 5562 5559 5556 5552 5549 5546 5542 5538 5534 5530 5526 5522
5581 5579 5578 5577 5578 5579 5580 5579 5578 5576 5576 5579 5580 5580 5580 5579 5578 5576 5575 5574 5573 5571 5569 5568 5566 5564 5562 5560 5558 5555 5553 5551 5548 5545 5542 5538 5535 5530 5526 5524 5520 5516 5512 5508
5561 5559 5557 5556 5556 5557 5558 5560 5560 5559 5557 5558 5559 5560 5560 5561 5561 5560 5559 5557 5556 5555 5554 5552 5550 5548 5547 5545 5542 5540 5537 5534 5533 5530 5526 5523 5519 5515 5511 5507 5504 5501 5497 5493
5541 5541 5540 5538 5537 5537 5538 5539 5539 5540 5540 5539 5538 5539 5540 5541 5541 5541 5541 5541 5539 5538 5536 5535 5533 5532 5531 5529 5527 5524 5522 5520 5517 5514 5511 5507 5503 5499 5495 5491 5488 5485 5482 5479
5524 5523 5523 5522 5521 5520 5520 5521 5521 5522 5522 5522 5522 5522 5522 5522 5523 5522 5521 5521 5521 5520 5519 5518 5516 5514 5513 5511 5510 5507 5506 5503 5500 5497 5494 5491 5488 5484 5480 5476 5473 5468 5465 5463
5510 5509 5508 5508 5508 5507 5506 5506 5506 5506 5507 5507 5506 5506 5506 5506 5505 5505 5505 5504 5501 5501 5500 5499 5497 5495 5494 5493 5492 5490 5487 5485 5482 5480 5477 5474 5471 5467 5463 5459 5456 5452 5448 5445
5496 5495 5495 5494 5495 5495 5494 5492 5492 5492 5493 5492 5492 5491 5490 5490 5489 5489 5489 5486 5484 5483 5484 5482 5479 5477 5476 5475 5473 5471 5469 5466 5464 5462 5459 5457 5453 5450 5446 5443 5439 5436 5433 5431
5480 5481 5480 5479 5479 5479 5480 5479 5478 5479 5478 5477 5476 5475 5474 5474 5475 5472 5470 5470 5468 5467 5467 5464 5462 5461 5459 5458 5456 5454 5452 5449 5445 5444 5441 5438 5434 5431 5428 5425 5422 5419 5417 5415
5464 5465 5464 5465 5465 5463 5463 5462 5463 5463 5462 5462 5464 5463 5460 5458 5459 5461 5458 5457 5455 5453 5451 5448 5446 5444 5442 5440 5439 5436 5434 5432 5428 5425 5422 5419 5417 5414 5411 5408 5405 5403 5401 5398
5448 5448 5448 5448 5449 5449 5447 5446 5448 5448 5446 5447 5448 5447 5446 5444 5444 5444 5444 5443 5441 5439 5437 5434 5431 5428 5426 5423 5421 5417 5415 5412 5410 5407 5404 5401 5399 5396 5394 5391 5389 5386 5385 5384
5431 5430 5431 5432 5431 5430 5430 5430 5430 5432 5429 5428 5429 5430 5428 5427 5428 5428 5427 5426 5424 5423 5421 5419 5416 5413 5410 5407 5405 5402 5398 5395 5392 5390 5388 5385 5383 5381 5378 5376 5373 5371 5370 5369